Overview Statistics Trail Chart Weather Telemetry Raw packets
 

This is the latest recevied weather packets stored in our database for station/object N3LF. If no packets are shown the sender has not sent any weather packets the latest 10 day(s).

<< 11 12 13 14 15 16 17 >>
Time Temp. Humidity Pressure Rain* Wind** Luminosity Snow
1788545249 36.67° C 57% 1018.5 hPa 0 mm - 242 W/m² -
1788544944 37.78° C 53% 1018.7 hPa 0 mm - 184 W/m² -
1788544643 37.78° C 51% 1018.6 hPa 0 mm - 185 W/m² -
1788544341 36.67° C 49% 1018.7 hPa 0 mm - 682 W/m² -
1788544037 36.67° C 53% 1018.7 hPa 0 mm - 653 W/m² -
1788543733 36.67° C 53% 1018.5 hPa 0 mm - 485 W/m² -
1788543428 35.56° C 56% 1018.8 hPa 0 mm - 450 W/m² -
1788543123 35° C 57% 1018.7 hPa 0 mm - 136 W/m² -
1788542820 37.22° C 52% 1018.8 hPa 0 mm - 110 W/m² -
1788542519 37.78° C 51% 1018.9 hPa 0 mm - 258 W/m² -
1788542215 37.22° C 49% 1018.9 hPa 0 mm - 675 W/m² -
1788541914 37.22° C 51% 1018.9 hPa 0 mm - 679 W/m² -
1788541611 35.56° C 55% 1019.2 hPa 0 mm - 591 W/m² -
1788541306 36.67° C 51% 1019 hPa 0 mm - 177 W/m² -
1788541005 36.11° C 53% 1019.2 hPa 0 mm - 481 W/m² -
1788540704 36.11° C 53% 1019.2 hPa 0 mm - 610 W/m² -
1788540399 35.56° C 54% 1019.1 hPa 0 mm - 581 W/m² -
1788540095 37.22° C 51% 1019.2 hPa 0 mm - 166 W/m² -
1788539791 36.11° C 53% 1019.2 hPa 0 mm - 592 W/m² -
1788539486 36.67° C 51% 1019.3 hPa 0 mm - 583 W/m² -
1788539185 36.67° C 53% 1019.1 hPa 0 mm - 581 W/m² -
1788538880 36.67° C 53% 1019.4 hPa 0 mm - 574 W/m² -
1788538576 36.11° C 53% 1019.3 hPa 0 mm - 562 W/m² -
1788538270 36.11° C 56% 1019.3 hPa 0 mm - 560 W/m² -
1788537967 35° C 60% 1019.5 hPa 0 mm - 552 W/m² -

* Rain latest hour (hover to see other rain measurements)
** Current wind speed in m/s (hover to see current wind gust speed)